Location: Ahausen
(50.4985°N, 8.2722°E)
Time: 12:53:34
(UTC+00:00)

JY1SAT - Pass Details

Date: 02 July 2022
Orbit: 564 x 586 km, 97.6° (Epoch: 08 August)

Event Time Altitude Azimuth Distance (km) Brightness Sun altitude
Exits shadow 21:54:16 - 213° (SSW) 2,284 ? -13.5°
Reaches altitude 10° 21:55:27 10° 223° (SW) 1,913 ? -13.5°
Maximum altitude 21:58:26 19° 269° (W) 1,421 ? -13.7°
Drops below altitude 10° 22:01:27 10° 315° (NW) 1,922 ? -13.9°
Sets 22:04:09 0° 334° (NNW) 2,827 ? -14.0°
